Location: Unspecified
(50.0830°N, 0.0000°E)
Time: 07:34:55
(UTC+00:00)

Envisat - Pass Details

Date: 29 November 2019
Orbit: 764 x 766 km, 98.1° (Epoch: 15 December)

Event Time Altitude Azimuth Distance (km) Brightness Sun altitude
Rises 19:26:18 0° 217° (SW) 3,223 6.6 -31.9°
Reaches altitude 10° 19:29:44 10° 242° (WSW) 2,303 6.1 -32.5°
Maximum altitude 19:32:25 14° 274° (W) 2,025 5.9 -32.9°
Drops below altitude 10° 19:35:06 10° 306° (NW) 2,312 6.1 -33.3°
Sets 19:38:34 0° 331° (NNW) 3,244 6.7 -33.9°
